This is the latest recevied weather packets stored in our database for station/object IZ8FMH-11. If no packets are shown the sender has not sent any weather packets the latest 10 day(s).
| Time | Temp. | Humidity | Pressure | Rain* | Wind** | Luminosity | Snow |
|---|---|---|---|---|---|---|---|
| 1788615304 | 30.56° C | 58% | 1015.8 hPa | - | - | - | - |
| 1788613504 | 30° C | 57% | 1015.8 hPa | - | - | - | - |
| 1788611704 | 30° C | 61% | 1016.2 hPa | - | - | - | - |
| 1788609905 | 30° C | 61% | 1016.2 hPa | - | - | - | - |
| 1788608105 | 30° C | 61% | 1016.2 hPa | - | - | - | - |
| 1788606305 | 30° C | 56% | 1016.3 hPa | - | - | - | - |
| 1788604505 | 29.44° C | 52% | 1016.3 hPa | - | - | - | - |
| 1788602705 | 29.44° C | 53% | 1016.6 hPa | - | - | - | - |
| 1788600905 | 29.44° C | 47% | 1016.5 hPa | - | - | - | - |
| 1788599105 | 28.89° C | 44% | 1016.3 hPa | - | - | - | - |
| 1788595505 | 27.78° C | 46% | 1015.9 hPa | - | - | - | - |
| 1788593705 | 27.22° C | 44% | 1015.9 hPa | - | - | - | - |
| 1788591904 | 26.67° C | 46% | 1015.7 hPa | - | - | - | - |
| 1788590104 | 26.67° C | 43% | 1015.7 hPa | - | - | - | - |
| 1788588304 | 26.11° C | 40% | 1015.5 hPa | - | - | - | - |
| 1788586504 | 25.56° C | 43% | 1015.5 hPa | - | - | - | - |
| 1788584704 | 25.56° C | 42% | 1015.1 hPa | - | - | - | - |
| 1788582904 | 25.56° C | 40% | 1014.8 hPa | - | - | - | - |
| 1788581104 | 26.11° C | 37% | 1014.8 hPa | - | - | - | - |
| 1788579304 | 26.11° C | 42% | 1015 hPa | - | - | - | - |
| 1788577504 | 26.11° C | 43% | 1014.9 hPa | - | - | - | - |
| 1788575704 | 26.67° C | 41% | 1014.6 hPa | - | - | - | - |
| 1788573904 | 26.67° C | 39% | 1014.8 hPa | - | - | - | - |
| 1788572104 | 26.67° C | 44% | 1014.9 hPa | - | - | - | - |
| 1788570303 | 27.22° C | 40% | 1014.8 hPa | - | - | - | - |
* Rain since midnight (hover to see other rain measurements)
** Current wind speed in m/s (hover to see current wind gust speed)